This demonstration page uses our WeatherBlox Daily Observations layout. Learn more.

Left ArrowRight Arrow

Hourly Observations for November 16, 2022

Temp ( °F °C ) Dew Point ( °F °C ) Humidity (%) Winds ( mph kmh ) Pressure ( in mb ) Visibility ( mi km ) Precip ( " mm )
12:53 am 00:53 Partly Cloudy 36 2.2 18 -7.8 47 47 ENE 7 11 30.36 1028 10 16 0.00 0.00
1:53 am 01:53 Cloudy 39 3.9 18 -7.8 42 42 ENE 8 13 30.35 1028 10 16 0.00 0.00
2:53 am 02:53 Cloudy 38 3.3 18 -7.8 44 44 ENE 8 13 30.34 1028 10 16 0.00 0.00
3:53 am 03:53 Cloudy 40 4.4 19 -7.2 43 43 E 9 15 30.35 1028 10 16 0.00 0.00
4:53 am 04:53 Cloudy 39 3.9 20 -6.7 46 46 E 6 9 30.36 1028 10 16 0.00 0.00
5:53 am 05:53 Cloudy 38 3.3 20 -6.7 48 48 ENE 5 7 30.38 1029 10 16 0.00 0.00
6:53 am 06:53 Cloudy 39 3.9 20 -6.7 46 46 E 6 9 30.39 1029 10 16 0.00 0.00
7:53 am 07:53 Cloudy 39 3.9 20 -6.7 46 46 E 8 13 30.41 1030 10 16 0.00 0.00
8:53 am 08:53 Mostly Sunny 40 4.4 20 -6.7 44 44 ESE 10 17 30.44 1031 10 16 0.00 0.00
9:53 am 09:53 Cloudy 42 5.6 19 -7.2 39 39 ESE 14 22 30.45 1031 10 16 0.00 0.00
10:53 am 10:53 Cloudy 43 6.1 17 -8.3 35 35 ESE 14 22 30.45 1031 10 16 0.00 0.00
11:53 am 11:53 Cloudy 45 7.2 17 -8.3 32 32 ESE 12 19 30.43 1031 10 16 0.00 0.00
12:53 pm 12:53 Mostly Cloudy 47 8.3 15 -9.4 27 27 ESE 8 13 30.40 1030 10 16 0.00 0.00
1:53 pm 13:53 Partly Cloudy 49 9.4 15 -9.4 25 25 E 12 19 30.37 1028 10 16 0.00 0.00
2:53 pm 14:53 Mostly Cloudy 49 9.4 16 -8.9 26 26 E 12 19 30.36 1028 10 16 0.00 0.00
3:53 pm 15:53 Cloudy 49 9.4 16 -8.9 26 26 ENE 10 17 30.35 1028 10 16 0.00 0.00
4:53 pm 16:53 Sunny 48 8.9 16 -8.9 27 27 E 9 15 30.36 1028 10 16 0.00 0.00
5:53 pm 17:53 Mostly Sunny 46 7.8 16 -8.9 29 29 E 9 15 30.37 1029 10 16 0.00 0.00
6:53 pm 18:53 Mostly Cloudy 43 6.1 16 -8.9 33 33 NE 7 11 30.40 1030 10 16 0.00 0.00
7:53 pm 19:53 Cloudy 45 7.2 17 -8.3 32 32 ENE 8 13 30.42 1030 10 16 0.00 0.00
8:53 pm 20:53 Mostly Cloudy 41 5 17 -8.3 37 37 ENE 6 9 30.43 1031 10 16 0.00 0.00
9:53 pm 21:53 Cloudy 40 4.4 18 -7.8 41 41 N 5 7 30.43 1031 10 16 0.00 0.00
10:53 pm 22:53 Cloudy 38 3.3 18 -7.8 44 44 N 5 7 30.44 1031 10 16 0.00 0.00
11:53 pm 23:53 Partly Cloudy 36 2.2 17 -8.3 46 46 NNW 6 9 30.44 1031 10 16 0.00 0.00

Powered by AerisWeather